Location: Plainartige
(45.6866°N, 1.7993°E)
Time: 14:07:42
(UTC+00:00)

DIWATA 2B (PO-101) - Pass Details

Date: 09 July 2022
Orbit: 583 x 599 km, 98.0° (Epoch: 19 August)

Event Time Altitude Azimuth Distance (km) Brightness Sun altitude
Exits shadow 01:09:53 19° 129° (SE) 1,438 ? -20.0°
Maximum altitude 01:12:27 39° 70° (ENE) 903 ? -19.9°
Drops below altitude 10° 01:16:23 10° 1° (N) 1,949 ? -19.6°
Sets 01:18:39 0° 354° (N) 2,855 ? -19.5°
